Probability
26 26 26 29 33 35 35 34 31 27 23 20 19 16 14 15 15 13 11 12 13 14 14 12 10 8 6 4 3 2 1 0 0 0 0 0 0 0 1 0 0 0 0
26 27 26 25 30 34 34 32 30 27 22 20 19 17 15 15 15 13 11 11 13 14 13 12 10 8 6 4 3 2 1 0 0 0 0 0 0 0 1 0 0 0 0
26 26 22 20 23 29 30 29 27 24 21 20 20 18 16 15 14 11 10 11 13 13 12 11 9 7 6 4 2 1 1 1 1 0 0 0 0 0 0 0 0 0 0
26 22 17 16 18 23 26 26 24 21 19 20 20 18 15 13 10 8 8 10 12 12 11 10 9 7 5 3 2 2 2 2 2 1 0 0 0 0 0 0 0 0 0
24 20 16 16 17 21 24 25 22 19 18 19 19 16 13 10 8 6 6 8 10 11 11 10 8 6 5 4 3 3 3 3 2 1 0 0 0 0 0 0 0 0 0
20 18 17 18 19 21 24 24 21 18 16 16 16 14 11 10 8 7 6 7 8 8 8 7 5 4 5 4 3 2 2 1 1 0 0 0 0 0 0 0 0 0 0
17 16 17 17 18 21 22 21 18 15 13 12 12 11 10 9 9 8 6 6 6 5 4 3 2 1 2 2 1 1 1 0 0 0 0 0 0 0 0 0 0 0 0
12 14 15 16 16 18 19 17 15 14 12 10 10 9 9 8 8 7 6 5 4 2 1 1 0 0 0 0 0 0 0 0 0 0 0 0 0 0 0 0 0 0 0
9 12 14 15 14 13 14 14 13 12 10 9 8 7 7 6 6 6 5 5 3 1 0 0 0 0 0 0 0 0 0 0 0 0 0 0 0 0 0 0 0 0 0
9 11 14 13 12 10 9 10 10 10 8 7 6 5 4 3 3 4 4 4 3 2 1 0 0 0 0 0 0 0 0 0 0 0 0 0 0 0 0 0 0 0 0
9 11 12 11 10 8 6 6 6 7 6 5 4 4 3 1 1 1 1 2 3 2 1 0 0 0 0 0 0 0 0 0 0 0 0 0 0 0 0 0 0 0 0
8 8 8 8 8 7 5 4 4 4 5 4 3 3 3 2 1 0 0 1 1 1 1 0 0 0 0 0 0 0 0 0 0 0 0 0 0 0 0 0 0 0 0
7 6 5 4 4 5 5 4 3 4 5 5 4 3 3 3 2 1 0 0 0 0 1 1 1 0 0 0 0 0 0 0 0 0 0 0 0 0 0 0 0 0 0
5 4 2 1 1 3 4 3 3 4 5 5 4 3 3 3 3 1 0 0 0 0 0 1 1 0 0 0 0 0 0 0 0 0 0 0 0 0 0 0 0 0 0
3 2 0 0 0 1 2 2 3 3 4 5 4 3 3 3 3 2 1 0 0 0 0 0 0 0 0 0 0 0 0 0 0 0 0 0 0 0 0 0 0 0 0
1 0 0 0 0 0 1 1 3 3 3 4 3 3 3 3 3 3 1 0 0 0 0 0 0 0 0 0 0 0 0 0 0 0 0 0 0 0 0 0 0 0 0
0 0 0 0 0 0 0 2 3 3 3 3 3 3 3 3 3 3 2 1 0 0 0 0 0 0 0 0 0 0 0 0 0 0 0 0 0 0 0 0 0 0 0
0 0 0 0 0 0 0 1 2 3 3 3 3 3 3 3 3 3 2 1 0 0 0 0 0 0 0 0 0 0 0 0 0 0 0 0 0 0 0 0 0 0 0
0 0 0 0 0 0 1 2 2 2 3 3 3 3 3 3 3 2 1 0 0 0 0 0 0 0 0 0 0 0 0 0 0 0 0 0 0 0 0 0 0 0 0
0 0 0 0 0 0 1 2 2 1 1 2 3 3 3 2 2 1 0 0 0 0 0 0 0 0 0 0 0 0 0 0 0 0 0 0 0 0 0 0 0 0 0
0 0 0 0 0 1 2 3 2 1 0 1 2 2 1 1 1 0 0 0 0 0 0 0 0 0 0 0 0 0 0 0 0 0 0 0 0 0 0 0 0 0 0
0 0 0 0 0 1 2 3 2 1 0 0 1 1 0 0 0 0 0 0 0 0 0 0 0 0 0 0 0 0 0 0 0 0 0 0 0 0 0 0 0 0 0
0 0 0 0 0 1 3 3 2 1 0 0 0 0 0 0 0 0 0 0 0 0 0 0 0 0 0 0 0 0 0 0 0 0 0 0 0 0 0 0 0 0 0
0 0 0 0 1 2 3 3 2 1 0 0 0 0 0 0 0 0 0 0 0 0 0 0 0 0 0 0 0 0 0 0 0 0 0 0 0 0 0 0 0 0 0
0 0 0 0 1 2 3 3 2 1 0 0 0 0 0 0 0 0 0 0 0 0 0 0 0 0 0 0 0 0 0 0 0 0 0 0 0 0 0 0 0 0 0
0 0 0 0 0 1 3 3 2 1 0 0 0 0 0 0 0 0 0 0 0 0 0 0 0 0 0 0 0 0 0 0 0 0 0 0 0 0 0 0 0 0 0
Wind_Speed
7 6 6 6 6 6 6 5 4 3 3 2 2 2 1 1 0 0 0 0 0 1 1 0 1 0 0 1 0 0 0 1 0 1 2 2 2 1 1 1 1 1 2
8 7 5 6 6 6 6 5 5 3 2 2 1 1 1 1 0 1 1 1 0 1 1 0 0 0 0 0 0 1 0 1 0 1 0 2 3 2 2 1 1 1 1
12 10 8 5 5 6 6 5 4 3 2 2 2 2 2 2 2 2 2 2 1 0 0 1 1 1 0 0 0 1 1 1 1 1 2 1 2 2 2 2 1 1 1
8 8 7 6 6 5 5 5 4 4 3 3 3 3 2 1 0 1 1 2 2 1 1 1 1 1 1 1 1 0 1 1 1 1 1 2 2 1 2 2 2 1 1
9 8 7 6 5 5 5 5 5 4 3 3 3 3 2 1 0 1 1 2 2 2 2 1 1 1 1 1 1 0 0 1 1 1 1 1 1 1 2 2 2 2 1
8 7 5 6 5 5 5 4 4 3 3 3 3 3 3 2 2 1 1 1 1 2 2 2 1 1 1 1 1 1 0 0 1 1 1 1 1 1 1 2 2 2 2
7 6 6 6 6 6 5 4 4 3 2 3 2 2 3 2 2 1 0 0 1 1 2 2 2 1 1 1 1 1 1 1 1 1 1 1 2 2 2 2 1 1 2
7 6 5 5 6 6 5 5 5 3 3 3 2 2 2 1 1 1 0 0 1 1 2 1 1 2 2 1 1 1 1 1 1 1 1 1 2 2 2 2 2 1 1
6 6 5 5 6 6 5 5 4 3 3 2 2 2 1 1 0 0 0 0 1 1 1 1 2 2 2 1 1 1 1 1 1 1 1 1 2 2 2 2 3 3 2
4 4 4 4 5 5 4 4 5 4 3 3 2 2 1 1 1 1 1 0 1 1 1 2 2 2 2 2 1 1 1 1 1 1 1 2 2 1 1 1 2 3 3
4 3 4 3 4 4 4 4 3 3 3 2 2 2 1 1 1 1 1 1 1 1 1 1 1 1 1 1 1 1 1 1 2 2 1 2 2 1 1 1 1 1 2
5 5 4 4 4 4 3 3 3 3 3 2 2 2 2 2 1 1 1 1 1 1 1 1 1 1 2 1 1 2 2 1 2 2 2 3 2 2 2 1 1 1 2
6 5 4 4 4 4 3 3 3 3 2 3 3 2 2 1 1 0 1 1 1 2 2 2 2 2 1 1 1 1 1 1 2 2 2 2 2 2 2 2 1 1 1
6 6 4 3 3 4 3 3 3 2 3 3 3 2 1 1 1 0 1 1 1 1 2 2 1 1 1 1 1 1 2 2 2 2 2 2 2 3 3 2 2 1 1
7 6 5 3 3 3 3 3 2 2 3 3 2 2 2 1 1 0 1 1 1 1 1 2 2 2 2 1 2 1 1 2 3 3 3 3 4 4 3 2 2 1 1
7 6 5 5 4 4 4 3 3 3 3 3 3 2 2 1 1 0 0 1 2 1 1 2 2 2 2 2 3 2 2 2 3 3 4 4 4 4 5 5 4 5 4
7 6 6 5 4 4 4 4 3 3 3 3 3 2 2 2 1 1 0 1 1 1 2 2 2 2 3 3 4 3 1 2 2 3 3 4 4 4 3 3 4 3 5
7 6 5 4 3 3 3 3 3 3 3 3 3 3 2 2 1 0 0 1 1 1 1 2 2 1 3 4 4 4 2 2 3 3 3 3 4 4 2 2 3 3 3
6 5 5 4 3 3 4 3 2 2 2 3 3 3 3 2 2 1 1 1 1 1 1 2 1 2 3 4 4 4 2 2 4 3 3 3 3 4 3 2 2 4 4
5 5 4 4 4 3 4 4 3 2 2 3 3 3 3 3 3 2 2 1 1 1 1 2 2 2 3 4 5 3 1 2 3 4 4 4 4 4 3 1 1 3 5
6 6 5 4 3 3 4 4 3 3 4 3 3 2 2 3 3 2 1 1 0 1 1 2 3 3 3 4 5 4 1 2 3 3 4 4 6 6 5 3 3 5 5
6 6 5 4 3 4 5 4 4 3 2 2 2 2 2 2 2 1 1 1 0 1 2 2 3 3 3 4 5 5 4 3 2 3 4 5 8 8 7 5 6 7 5
6 5 6 4 2 3 5 5 4 3 3 2 2 2 2 1 1 2 1 1 1 1 2 2 3 4 3 4 6 6 5 4 2 4 7 8 10 9 6 7 9 6 2
6 5 6 5 3 3 4 4 4 4 3 2 2 2 1 1 1 1 2 2 2 2 2 2 3 3 3 3 3 3 3 3 3 3 6 8 8 6 6 6 5 3 3
5 6 6 6 5 4 4 4 4 4 4 3 2 1 1 1 1 2 2 3 4 4 4 4 3 3 4 5 5 3 2 2 2 3 3 3 4 4 4 4 4 3 2
6 6 6 5 5 5 5 4 4 5 4 3 2 2 2 2 1 1 3 5 5 7 7 8 6 5 7 8 7 6 6 5 4 2 2 4 4 4 5 5 5 4 4
Wind_Direction
146 137 143 143 135 133 132 134 131 134 130 123 127 123 120 102 43 356 18 174 181 172 147 280 307 318 173 228 220 125 286 295 40 44 345 331 330 317 278 236 205 214 216
141 144 156 152 152 146 141 140 144 146 141 139 138 128 132 136 131 355 355 337 282 236 167 124 323 313 224 14 38 99 67 297 98 122 45 326 329 327 316 288 237 244 246
161 163 170 167 149 147 152 146 141 127 121 114 100 84 64 45 33 8 343 323 341 8 57 26 356 311 264 250 259 153 133 257 287 179 162 185 247 303 317 312 303 293 279
160 162 160 160 152 150 144 126 126 123 120 115 116 117 119 130 239 293 315 332 360 7 28 23 354 339 321 286 264 166 164 169 248 276 227 200 189 207 299 314 318 307 272
150 156 159 153 146 144 134 124 122 117 117 117 125 122 110 109 50 20 7 360 358 4 3 14 18 354 309 293 296 308 112 172 200 226 246 264 264 203 199 276 301 317 294
146 157 153 135 129 128 127 124 121 119 117 115 116 121 121 111 92 43 17 7 2 359 358 3 4 341 314 312 319 310 317 262 214 216 203 196 215 222 197 237 269 286 297
145 146 140 142 147 146 140 135 130 127 121 113 110 125 135 139 145 171 224 360 355 336 321 337 328 332 336 358 5 357 335 286 229 222 226 215 223 207 193 207 239 265 286
141 147 152 155 155 151 146 141 142 140 132 127 131 123 120 131 165 199 207 236 262 273 288 305 313 320 333 349 4 351 321 328 307 280 251 241 250 218 202 191 188 234 280
140 149 144 146 146 146 148 149 146 137 134 134 120 101 102 105 81 310 234 244 273 278 308 327 333 327 329 324 345 340 312 325 320 300 297 280 269 248 225 201 187 182 219
130 136 138 143 139 142 140 130 133 136 134 124 120 123 120 122 110 81 50 349 294 308 340 349 345 343 334 325 323 301 299 348 323 303 313 305 286 283 269 222 212 193 190
134 125 136 145 137 130 132 130 135 130 125 127 122 113 99 73 65 54 13 333 326 339 348 343 345 345 342 344 340 320 346 352 336 332 335 316 310 311 298 280 227 212 190
143 131 130 133 135 137 137 131 138 137 149 144 124 123 113 94 76 22 337 340 343 349 353 351 349 345 360 5 6 358 6 0 346 332 333 314 323 330 310 288 255 234 207
142 132 127 136 139 141 142 143 149 153 154 136 125 124 123 122 133 265 328 345 349 347 353 7 356 352 8 18 11 19 358 332 315 307 303 302 315 314 304 287 268 249 225
153 148 145 143 151 152 151 150 162 165 152 138 134 146 168 169 194 267 357 352 346 357 351 359 357 7 19 18 2 6 355 337 320 314 305 298 285 278 286 288 273 251 213
158 157 155 158 168 164 162 163 171 178 160 146 153 182 190 176 175 350 343 338 337 349 355 21 17 20 26 11 3 345 345 336 323 322 316 302 293 289 275 266 251 222 216
164 164 165 173 181 176 170 169 182 188 167 164 183 188 179 178 197 237 309 337 339 347 12 16 17 11 1 359 354 346 334 329 327 320 315 310 306 308 304 282 252 218 206
165 169 175 179 183 180 171 179 191 183 172 178 180 176 178 183 216 235 43 324 329 359 2 347 357 342 325 337 350 351 329 314 312 307 306 313 318 315 308 311 306 269 236
169 175 174 173 177 174 172 175 173 169 172 177 179 180 174 183 183 110 306 294 302 327 317 307 320 320 317 336 348 349 344 323 316 307 296 300 309 312 311 322 329 313 286
170 174 171 169 166 162 163 150 154 160 169 182 189 191 177 174 176 207 251 254 258 305 301 293 302 309 306 321 333 342 331 326 322 319 321 314 304 308 335 2 336 327 314
158 158 157 145 149 169 157 146 160 162 193 202 202 194 178 174 195 220 242 247 231 256 288 301 292 275 284 302 318 331 329 323 319 322 321 318 312 309 315 314 311 307 301
155 150 145 146 168 173 152 152 164 198 217 200 176 178 173 187 202 218 230 239 273 321 320 303 297 287 274 286 294 304 288 278 300 306 309 311 323 318 306 281 253 258 272
148 145 145 154 171 162 149 155 185 205 190 162 159 180 195 210 188 191 253 261 244 307 306 306 306 297 283 273 278 280 272 259 257 280 292 299 311 309 302 288 273 275 280
155 151 150 152 162 166 157 165 194 184 167 159 179 197 207 225 204 198 228 263 262 252 274 272 280 288 290 288 284 284 286 286 257 273 288 297 302 305 300 288 288 290 270
159 154 150 155 174 185 179 185 188 172 157 170 194 196 190 267 286 255 221 217 235 246 259 258 265 279 289 288 291 296 301 311 306 301 302 304 302 297 282 289 293 270 244
162 157 162 171 184 186 190 195 183 168 167 177 185 197 206 226 272 287 263 242 239 224 223 239 236 240 268 267 255 252 271 280 289 312 318 323 325 323 314 306 297 285 273
162 163 167 172 183 184 192 200 185 172 168 176 195 206 218 240 247 278 308 297 269 266 252 239 232 240 244 258 272 272 272 280 289 301 298 301 300 294 293 295 297 292 279